When you browse on this site, cookies collect data to enhance your experience and personalize the content and advertising you see.
Visit our Privacy Policy to learn more. By continuing to use the site, you agree to this use of cookies and data.
  • In Belgien
  • Länderverzeichnis
  • Für 7 Tage
  • Wassertemperatur
  • Satellitenkarten
  • Wetterkarte
  • Widgets
  • user-avatar
    Anmelden

    Stündliche Wetter Wavre

    Heute, 21 November, Mittwoch

    Zeit Temperatur Niederschläge Wind Luftdruck Luftfeuchtigkeit
    00:00 +2°C° 0 mm 2 m/S 750 mmHg 81%
    01:00 +2°C° 0 mm 2 m/S 751 mmHg 80%
    02:00 +2°C° 0 mm 2 m/S 751 mmHg 80%
    03:00 +2°C° 0 mm 2 m/S 751 mmHg 79%
    04:00 +2°C° 0 mm 2 m/S 752 mmHg 81%
    05:00 +2°C° 0 mm 2 m/S 753 mmHg 83%
    06:00 +2°C° 0 mm 1 m/S 753 mmHg 85%
    07:00 +3°C° 0 mm 1 m/S 754 mmHg 82%
    08:00 +4°C° 0 mm 1 m/S 754 mmHg 79%
    09:00 +4°C° 0 mm 1 m/S 755 mmHg 76%
    10:00 +5°C° 0 mm 1 m/S 755 mmHg 73%
    11:00 +6°C° 0 mm 1 m/S 755 mmHg 69%
    12:00 +7°C° 0 mm 1 m/S 756 mmHg 66%
    13:00 +6°C° 0 mm 2 m/S 756 mmHg 69%
    14:00 +5°C° 0 mm 2 m/S 756 mmHg 72%
    15:00 +5°C° 0 mm 2 m/S 756 mmHg 74%
    16:00 +4°C° 0 mm 2 m/S 756 mmHg 77%
    17:00 +4°C° 0 mm 2 m/S 756 mmHg 79%
    18:00 +3°C° 0 mm 2 m/S 757 mmHg 81%
    19:00 +3°C° 0 mm 2 m/S 757 mmHg 81%
    20:00 +3°C° 0 mm 2 m/S 757 mmHg 82%
    21:00 +4°C° 0 mm 1 m/S 757 mmHg 83%
    22:00 +3°C° 0 mm 1 m/S 757 mmHg 84%
    23:00 +3°C° 0 mm 1 m/S 757 mmHg 84%

    Morgen, 22 November, Donnerstag

    Zeit Temperatur Niederschläge Wind Luftdruck Luftfeuchtigkeit
    00:00 +3°C° 0 mm 1 m/S 757 mmHg 85%
    01:00 +3°C° 0 mm 1 m/S 757 mmHg 86%
    02:00 +2°C° 0 mm 1 m/S 757 mmHg 87%
    03:00 +2°C° 0 mm 1 m/S 757 mmHg 87%
    04:00 +2°C° 0 mm 1 m/S 757 mmHg 88%
    05:00 +2°C° 0 mm 1 m/S 757 mmHg 88%
    06:00 +1°C° 0 mm 1 m/S 757 mmHg 89%
    07:00 +2°C° 0 mm 1 m/S 757 mmHg 85%
    08:00 +3°C° 0 mm 1 m/S 757 mmHg 81%
    09:00 +4°C° 0 mm 1 m/S 757 mmHg 77%
    10:00 +5°C° 0 mm 1 m/S 757 mmHg 73%
    11:00 +7°C° 0 mm 1 m/S 757 mmHg 68%
    12:00 +8°C° 0 mm 1 m/S 757 mmHg 63%
    13:00 +8°C° 0 mm 1 m/S 757 mmHg 66%
    14:00 +8°C° 0 mm 1 m/S 757 mmHg 70%
    15:00 +7°C° 0 mm 1 m/S 757 mmHg 73%
    16:00 +5°C° 0 mm 2 m/S 757 mmHg 77%
    17:00 +4°C° 0 mm 2 m/S 757 mmHg 81%
    18:00 +4°C° 0 mm 2 m/S 757 mmHg 84%
    19:00 +3°C° 0 mm 2 m/S 757 mmHg 86%
    20:00 +3°C° 0 mm 2 m/S 757 mmHg 88%
    21:00 +3°C° 0 mm 2 m/S 757 mmHg 89%
    22:00 +3°C° 0 mm 2 m/S 757 mmHg 90%
    23:00 +3°C° 0 mm 2 m/S 757 mmHg 90%

    übermorgen, 23 November, Freitag

    Zeit Temperatur Niederschläge Wind Luftdruck Luftfeuchtigkeit
    00:00 +3°C° 0 mm 2 m/S 757 mmHg 91%
    01:00 +4°C° 0.4 mm 2 m/S 757 mmHg 92%
    02:00 +4°C° 0.4 mm 2 m/S 757 mmHg 93%
    03:00 +4°C° 0.4 mm 2 m/S 757 mmHg 94%
    04:00 +4°C° 0.2 mm 2 m/S 757 mmHg 95%
    05:00 +4°C° 0.2 mm 2 m/S 757 mmHg 95%
    06:00 +4°C° 0.2 mm 2 m/S 757 mmHg 95%
    07:00 +4°C° 0 mm 2 m/S 757 mmHg 94%
    08:00 +4°C° 0 mm 3 m/S 757 mmHg 92%
    09:00 +4°C° 0 mm 3 m/S 757 mmHg 90%
    10:00 +7°C° 0 mm 3 m/S 756 mmHg 87%
    11:00 +8°C° 0 mm 3 m/S 756 mmHg 83%
    12:00 +9°C° 0 mm 2 m/S 756 mmHg 79%
    13:00 +9°C° 0 mm 2 m/S 756 mmHg 82%
    14:00 +8°C° 0 mm 2 m/S 755 mmHg 84%
    15:00 +9°C° 0 mm 1 m/S 755 mmHg 87%
    16:00 +7°C° 0 mm 2 m/S 755 mmHg 89%
    17:00 +6°C° 0 mm 2 m/S 755 mmHg 91%
    18:00 +5°C° 0 mm 2 m/S 755 mmHg 92%
    19:00 +5°C° 0 mm 2 m/S 755 mmHg 92%
    20:00 +5°C° 0 mm 2 m/S 755 mmHg 92%
    21:00 +4°C° 0 mm 2 m/S 755 mmHg 92%
    22:00 +4°C° 0 mm 2 m/S 755 mmHg 92%
    23:00 +5°C° 0 mm 1 m/S 755 mmHg 92%

    24 November, Samstag

    Zeit Temperatur Niederschläge Wind Luftdruck Luftfeuchtigkeit
    00:00 +5°C° 0 mm 1 m/S 755 mmHg 92%
    01:00 +5°C° 0.1 mm 1 m/S 755 mmHg 92%
    02:00 +5°C° 0.1 mm 1 m/S 754 mmHg 92%
    03:00 +5°C° 0.1 mm 1 m/S 754 mmHg 93%
    04:00 +5°C° 0.4 mm 1 m/S 754 mmHg 94%
    05:00 +5°C° 0.4 mm 1 m/S 754 mmHg 94%
    06:00 +5°C° 0.4 mm 1 m/S 754 mmHg 95%
    07:00 +6°C° 0.4 mm 1 m/S 755 mmHg 95%
    08:00 +6°C° 0.4 mm 1 m/S 755 mmHg 95%
    09:00 +6°C° 0.4 mm 1 m/S 755 mmHg 95%
    10:00 +6°C° 0.1 mm 2 m/S 755 mmHg 93%
    11:00 +7°C° 0.1 mm 2 m/S 755 mmHg 90%
    12:00 +7°C° 0.1 mm 2 m/S 755 mmHg 88%
    13:00 +7°C° 0 mm 2 m/S 755 mmHg 89%
    14:00 +8°C° 0 mm 1 m/S 755 mmHg 90%
    15:00 +8°C° 0 mm 1 m/S 755 mmHg 90%
    16:00 +8°C° 0 mm 1 m/S 755 mmHg 91%
    17:00 +8°C° 0 mm 1 m/S 755 mmHg 91%
    18:00 +7°C° 0 mm 1 m/S 755 mmHg 92%
    19:00 +7°C° 0 mm 1 m/S 755 mmHg 92%
    20:00 +7°C° 0 mm 1 m/S 755 mmHg 92%
    21:00 +7°C° 0 mm 1 m/S 756 mmHg 92%
    22:00 +7°C° 0 mm 1 m/S 755 mmHg 92%
    23:00 +6°C° 0 mm 1 m/S 755 mmHg 93%

    25 November, Sonntag

    Zeit Temperatur Niederschläge Wind Luftdruck Luftfeuchtigkeit
    00:00 +6°C° 0 mm 1 m/S 755 mmHg 93%
    01:00 +5°C° 0 mm 2 m/S 755 mmHg 93%
    02:00 +4°C° 0 mm 2 m/S 755 mmHg 93%
    03:00 +4°C° 0 mm 2 m/S 754 mmHg 94%
    04:00 +4°C° 0 mm 2 m/S 754 mmHg 94%
    05:00 +4°C° 0 mm 2 m/S 754 mmHg 94%
    06:00 +2°C° 0 mm 3 m/S 753 mmHg 94%
    07:00 +3°C° 0 mm 3 m/S 753 mmHg 92%
    08:00 +3°C° 0 mm 3 m/S 753 mmHg 90%
    09:00 +4°C° 0 mm 4 m/S 753 mmHg 88%
    10:00 +5°C° 0 mm 4 m/S 753 mmHg 85%
    11:00 +5°C° 0 mm 4 m/S 753 mmHg 82%
    12:00 +6°C° 0 mm 4 m/S 752 mmHg 79%
    13:00 +6°C° 0 mm 4 m/S 752 mmHg 80%
    14:00 +6°C° 0 mm 4 m/S 752 mmHg 82%
    15:00 +5°C° 0 mm 4 m/S 752 mmHg 84%
    16:00 +5°C° 0 mm 4 m/S 751 mmHg 86%
    17:00 +4°C° 0 mm 4 m/S 751 mmHg 87%
    18:00 +4°C° 0 mm 4 m/S 751 mmHg 89%
    19:00 +3°C° 0 mm 4 m/S 751 mmHg 90%
    20:00 +3°C° 0 mm 4 m/S 751 mmHg 91%
    21:00 +3°C° 0 mm 4 m/S 751 mmHg 92%
    22:00 +3°C° 0 mm 4 m/S 751 mmHg 91%
    23:00 +3°C° 0 mm 4 m/S 750 mmHg 90%

    26 November, Montag

    Zeit Temperatur Niederschläge Wind Luftdruck Luftfeuchtigkeit
    00:00 +3°C° 0 mm 4 m/S 750 mmHg 90%
    01:00 +3°C° 0 mm 4 m/S 750 mmHg 90%
    02:00 +2°C° 0 mm 5 m/S 749 mmHg 89%
    03:00 +2°C° 0 mm 5 m/S 749 mmHg 89%
    04:00 +2°C° 0.1 mm 5 m/S 748 mmHg 89%
    05:00 +2°C° 0.1 mm 5 m/S 748 mmHg 89%
    06:00 +2°C° 0.1 mm 5 m/S 747 mmHg 89%
    07:00 +3°C° 0.3 mm 6 m/S 747 mmHg 88%
    08:00 +3°C° 0.3 mm 6 m/S 747 mmHg 86%
    09:00 +4°C° 0.3 mm 6 m/S 747 mmHg 85%
    10:00 +4°C° 0.6 mm 6 m/S 746 mmHg 85%
    11:00 +4°C° 0.6 mm 6 m/S 746 mmHg 84%
    12:00 +5°C° 0.6 mm 6 m/S 746 mmHg 84%
    13:00 +5°C° 0.4 mm 6 m/S 745 mmHg 85%
    14:00 +5°C° 0.4 mm 6 m/S 745 mmHg 85%
    15:00 +6°C° 0.4 mm 5 m/S 745 mmHg 86%
    16:00 +5°C° 0.3 mm 6 m/S 745 mmHg 86%
    17:00 +5°C° 0.3 mm 6 m/S 745 mmHg 86%
    18:00 +4°C° 0.3 mm 6 m/S 745 mmHg 87%
    19:00 +5°C° 0.1 mm 5 m/S 745 mmHg 87%
    20:00 +5°C° 0.1 mm 5 m/S 745 mmHg 88%
    21:00 +5°C° 0.1 mm 4 m/S 745 mmHg 88%
    22:00 +5°C° 0 mm 4 m/S 745 mmHg 89%
    23:00 +5°C° 0 mm 4 m/S 745 mmHg 90%
    Mehr zeigen